Location: Kelshall
(52.0000°N, 0.0500°W)
Time: 02:48:49
(UTC+00:00)

Cosmos 1833 Rocket - Pass Details

Date: 18 September 2020
Orbit: 831 x 841 km, 71.0° (Epoch: 18 October)

Event Time Altitude Azimuth Distance (km) Brightness Sun altitude
Rises 21:42:04 0° 327° (NNW) 3,409 7.0 -29.8°
Reaches altitude 10° 21:44:33 10° 324° (NW) 2,470 6.0 -30.0°
Enters shadow 21:49:34 57° 272° (W) 991 3.1 -30.5°
